Overview Statistics Trail Chart Weather Telemetry Raw packets
 

This is the latest recevied weather packets stored in our database for station/object KN6DHD. If no packets are shown the sender has not sent any weather packets the latest 10 day(s).

<< 108 109 110 111 112 113 114 >>
Time Temp. Humidity Pressure Rain* Wind** Luminosity Snow
1776909351 17.78° C 60% 1021.5 hPa 0 mm - 31 W/m² -
1776909048 17.78° C 59% 1021.6 hPa 0 mm - 23 W/m² -
1776908747 17.78° C 60% 1021.5 hPa 0 mm - 25 W/m² -
1776908444 17.78° C 60% 1021.8 hPa 0 mm - 31 W/m² -
1776908139 17.78° C 59% 1021.5 hPa 0 mm - 25 W/m² -
1776907836 18.33° C 58% 1021.6 hPa 0 mm - 46 W/m² -
1776907533 18.33° C 54% 1021.7 hPa 0 mm - 29 W/m² -
1776907231 18.89° C 56% 1021.7 hPa 0 mm - 112 W/m² -
1776906927 18.33° C 56% 1021.7 hPa 0 mm - 26 W/m² -
1776906625 18.89° C 54% 1021.8 hPa 0 mm - 28 W/m² -
1776906321 18.89° C 54% 1021.7 hPa 0 mm - 56 W/m² -
1776906018 19.44° C 53% 1021.9 hPa 0 mm - 52 W/m² -
1776905714 19.44° C 54% 1021.8 hPa 0 mm - 68 W/m² -
1776905409 20° C 55% 1021.7 hPa 0 mm - 55 W/m² -
1776905107 20° C 56% 1021.8 hPa 0 mm - 167 W/m² -
1776904804 20.56° C 56% 1021.7 hPa 0 mm - 72 W/m² -
1776904501 21.11° C 51% 1021.7 hPa 0 mm - 80 W/m² -
1776904198 20.56° C 55% 1021.8 hPa 0 mm - 86 W/m² -
1776903893 20.56° C 53% 1021.7 hPa 0 mm - 301 W/m² -
1776903589 20° C 54% 1021.9 hPa 0 mm - 312 W/m² -
1776903285 20° C 53% 1022.1 hPa 0 mm - 325 W/m² -
1776902982 20° C 53% 1021.8 hPa 0 mm - 333 W/m² -
1776902679 20.56° C 51% 1021.8 hPa 0 mm - 76 W/m² -
1776902378 20.56° C 53% 1022.1 hPa 0 mm - 130 W/m² -
1776902073 20° C 52% 1022 hPa 0 mm - 85 W/m² -

* Rain latest hour (hover to see other rain measurements)
** Current wind speed in m/s (hover to see current wind gust speed)